Location: Jaite
(41.2884°N, 81.5737°W)
Time: 08:40:27
(UTC+00:00)

CZ-4 R/B - Pass Details

Date: 15 November 2025
Orbit: 675 x 744 km, 98.7° (Epoch: 13 December)

Event Time Altitude Azimuth Distance (km) Brightness Sun altitude
Rises 10:49:55 0° 9° (N) 3,141 7.2 -16.0°
Reaches altitude 10° 10:52:14 10° 6° (N) 2,205 6.3 -15.6°
Maximum altitude 10:56:58 58° 288° (WNW) 823 3.8 -14.7°
Drops below altitude 10° 11:01:35 10° 210° (SSW) 2,146 6.2 -13.9°
Sets 11:03:49 0° 206° (SSW) 3,049 7.0 -13.5°
